DLH4SH EDJA-LFSB

Flight info

Callsign DLH4SH
Flight time 0h 45m
Altitude 23000
Route UMTEX1A UMTEX Y100 TRA L856 HOC/N0335F190 Y51 LEPLA/N0330F180 Z600 LUMEL
Aircraft A20N/M-SDE2E3FGHIRWXY/LB1

Departure

Time 2026-05-09 09:12
Airport Memmingen Allgau Airport (EDJA)

Arrival

Time 2026-05-09 09:57
Airport EuroAirport Basel–Mulhouse–Freiburg (LFSB)
Time Latitude Longitude Altitude Speed Heading
2026-05-09 08:38 47.98890 10.23329 2079 ft 0 kts 49°
2026-05-09 08:59 47.98885 10.23319 2077 ft 1 kts 49°
2026-05-09 08:59 47.98879 10.23310 2078 ft 1 kts 51°
2026-05-09 08:59 47.98874 10.23301 2075 ft 1 kts 21°
2026-05-09 08:59 47.98866 10.23298 2077 ft 1 kts 350°
2026-05-09 09:00 47.98858 10.23302 2079 ft 1 kts 319°
2026-05-09 09:00 47.98853 10.23309 2079 ft 0 kts 291°
2026-05-09 09:01 47.98857 10.23294 2079 ft 2 kts 291°
2026-05-09 09:01 47.98861 10.23279 2077 ft 1 kts 294°
2026-05-09 09:01 47.98858 10.23290 2078 ft 1 kts 320°
2026-05-09 09:01 47.98851 10.23297 2079 ft 1 kts 353°
2026-05-09 09:02 47.98843 10.23297 2079 ft 1 kts 27°
2026-05-09 09:02 47.98836 10.23290 2079 ft 1 kts 55°
2026-05-09 09:02 47.98832 10.23280 2076 ft 1 kts 65°
2026-05-09 09:02 47.98829 10.23272 2078 ft 0 kts 73°
2026-05-09 09:05 47.98829 10.23273 2078 ft 1 kts 73°
2026-05-09 09:05 47.98834 10.23298 2079 ft 4 kts 74°
2026-05-09 09:05 47.98847 10.23359 2077 ft 8 kts 70°
2026-05-09 09:06 47.98870 10.23451 2079 ft 11 kts 70°
2026-05-09 09:06 47.98898 10.23568 2079 ft 12 kts 72°
2026-05-09 09:06 47.98910 10.23677 2079 ft 8 kts 101°
2026-05-09 09:06 47.98899 10.23705 2076 ft 0 kts 123°
2026-05-09 09:07 47.98887 10.23725 2077 ft 4 kts 140°
2026-05-09 09:07 47.98852 10.23759 2078 ft 8 kts 150°
2026-05-09 09:07 47.98799 10.23738 2075 ft 9 kts 229°
2026-05-09 09:08 47.98760 10.23646 2078 ft 11 kts 237°
2026-05-09 09:08 47.98717 10.23538 2078 ft 13 kts 239°
2026-05-09 09:08 47.98664 10.23405 2074 ft 17 kts 239°
2026-05-09 09:08 47.98602 10.23249 2078 ft 18 kts 239°
2026-05-09 09:09 47.98532 10.23074 2077 ft 21 kts 239°
2026-05-09 09:09 47.98458 10.22888 2080 ft 21 kts 239°
2026-05-09 09:09 47.98403 10.22714 2082 ft 15 kts 252°
2026-05-09 09:09 47.98377 10.22646 2083 ft 2 kts 169°
2026-05-09 09:10 47.98371 10.22669 2083 ft 4 kts 84°
2026-05-09 09:10 47.98389 10.22712 2082 ft 8 kts 61°
2026-05-09 09:10 47.98405 10.22753 2081 ft 0 kts 58°
2026-05-09 09:11 47.98408 10.22758 2081 ft 0 kts 58°
2026-05-09 09:11 47.98464 10.22894 2079 ft 49 kts 58°
2026-05-09 09:11 47.98793 10.23725 2078 ft 133 kts 59°
2026-05-09 09:11 47.99345 10.25192 2309 ft 180 kts 59°
2026-05-09 09:12 47.99976 10.26872 3088 ft 192 kts 59°
2026-05-09 09:12 48.00654 10.28680 3934 ft 206 kts 59°
2026-05-09 09:12 48.01372 10.30579 4729 ft 215 kts 59°
2026-05-09 09:12 48.02126 10.32588 5377 ft 228 kts 60°
2026-05-09 09:13 48.02932 10.34755 6010 ft 248 kts 60°
2026-05-09 09:13 48.03751 10.37107 6669 ft 265 kts 70°
2026-05-09 09:13 48.04106 10.39752 7026 ft 251 kts 92°
2026-05-09 09:13 48.03719 10.42216 7207 ft 247 kts 117°
2026-05-09 09:14 48.02642 10.44170 7049 ft 242 kts 146°
2026-05-09 09:14 48.01111 10.45066 7008 ft 240 kts 175°
2026-05-09 09:14 47.99475 10.44734 6988 ft 241 kts 203°
2026-05-09 09:14 47.98147 10.43246 6990 ft 241 kts 232°
2026-05-09 09:15 47.97355 10.41038 6940 ft 244 kts 247°
2026-05-09 09:15 47.96778 10.38691 7104 ft 238 kts 249°
2026-05-09 09:15 47.96202 10.36307 7224 ft 249 kts 250°
2026-05-09 09:15 47.95689 10.33854 7033 ft 244 kts 256°
2026-05-09 09:16 47.95429 10.31282 7042 ft 268 kts 264°
2026-05-09 09:16 47.95136 10.25594 7200 ft 276 kts 262°
2026-05-09 09:16 47.94844 10.22761 7224 ft 277 kts 258°
2026-05-09 09:17 47.94388 10.19958 7313 ft 278 kts 253°
2026-05-09 09:17 47.93853 10.17191 7863 ft 280 kts 254°
2026-05-09 09:17 47.93362 10.14396 9007 ft 277 kts 256°
2026-05-09 09:17 47.92926 10.11582 10099 ft 279 kts 257°
2026-05-09 09:18 47.92520 10.08700 10794 ft 294 kts 258°
2026-05-09 09:18 47.92103 10.05596 11197 ft 317 kts 258°
2026-05-09 09:18 47.91654 10.02270 11713 ft 332 kts 258°
2026-05-09 09:18 47.91192 9.98877 12595 ft 336 kts 258°
2026-05-09 09:19 47.90753 9.95666 13447 ft 340 kts 259°
2026-05-09 09:19 47.90281 9.92222 14257 ft 344 kts 259°
2026-05-09 09:19 47.89802 9.88727 15090 ft 346 kts 259°
2026-05-09 09:19 47.89309 9.85192 15753 ft 350 kts 257°
2026-05-09 09:20 47.88598 9.81713 16014 ft 352 kts 250°
2026-05-09 09:20 47.87733 9.78299 16107 ft 352 kts 250°
2026-05-09 09:20 47.86875 9.74893 16114 ft 352 kts 250°
2026-05-09 09:20 47.86018 9.71478 16119 ft 352 kts 250°
2026-05-09 09:21 47.85161 9.68053 16116 ft 352 kts 250°
2026-05-09 09:21 47.84317 9.64685 16117 ft 352 kts 250°
2026-05-09 09:21 47.83594 9.61110 16124 ft 351 kts 258°
2026-05-09 09:21 47.83157 9.57534 16125 ft 352 kts 261°
2026-05-09 09:22 47.82736 9.53953 16126 ft 351 kts 260°
2026-05-09 09:22 47.82310 9.50375 16124 ft 352 kts 260°
2026-05-09 09:22 47.81879 9.46791 16125 ft 352 kts 260°
2026-05-09 09:22 47.81446 9.43212 16124 ft 352 kts 260°
2026-05-09 09:23 47.81013 9.39636 16123 ft 352 kts 260°
2026-05-09 09:23 47.80579 9.36067 16122 ft 351 kts 260°
2026-05-09 09:23 47.80143 9.32482 16126 ft 353 kts 260°
2026-05-09 09:23 47.79706 9.28896 16122 ft 352 kts 260°
2026-05-09 09:24 47.79268 9.25318 16117 ft 352 kts 260°
2026-05-09 09:24 47.78830 9.21745 16120 ft 352 kts 260°
2026-05-09 09:24 47.78381 9.18107 16119 ft 352 kts 260°
2026-05-09 09:24 47.77940 9.14530 16119 ft 352 kts 260°
2026-05-09 09:25 47.77497 9.10945 16116 ft 352 kts 260°
2026-05-09 09:25 47.77052 9.07369 16117 ft 352 kts 260°
2026-05-09 09:25 47.76601 9.03747 16114 ft 352 kts 259°
2026-05-09 09:25 47.76157 9.00208 16115 ft 352 kts 260°
2026-05-09 09:26 47.75710 8.96628 16115 ft 352 kts 260°
2026-05-09 09:26 47.75262 8.93043 16111 ft 353 kts 260°
2026-05-09 09:26 47.74806 8.89417 16110 ft 352 kts 259°
2026-05-09 09:26 47.74355 8.85839 16110 ft 353 kts 259°
2026-05-09 09:27 47.73903 8.82262 16112 ft 353 kts 259°
2026-05-09 09:27 47.73448 8.78675 16113 ft 353 kts 259°
2026-05-09 09:27 47.72991 8.75087 16114 ft 353 kts 259°
2026-05-09 09:27 47.72535 8.71507 16113 ft 353 kts 259°
2026-05-09 09:28 47.72083 8.67974 16113 ft 353 kts 259°
2026-05-09 09:28 47.71619 8.64348 16115 ft 353 kts 259°
2026-05-09 09:28 47.71164 8.60801 16121 ft 353 kts 259°
2026-05-09 09:28 47.70702 8.57222 16120 ft 353 kts 259°
2026-05-09 09:29 47.70235 8.53598 16119 ft 354 kts 259°
2026-05-09 09:29 47.69770 8.50010 16117 ft 353 kts 259°
2026-05-09 09:29 47.69311 8.46471 16119 ft 354 kts 259°
2026-05-09 09:29 47.68679 8.42905 16122 ft 354 kts 252°
2026-05-09 09:30 47.67768 8.39516 16120 ft 354 kts 247°
2026-05-09 09:30 47.66796 8.36152 16118 ft 354 kts 247°
2026-05-09 09:30 47.65834 8.32793 16111 ft 354 kts 247°
2026-05-09 09:30 47.64873 8.29434 16119 ft 354 kts 248°
2026-05-09 09:31 47.63914 8.26070 16115 ft 354 kts 247°
2026-05-09 09:31 47.62952 8.22706 16113 ft 353 kts 247°
2026-05-09 09:31 47.61991 8.19351 16104 ft 355 kts 247°
2026-05-09 09:32 47.60062 8.12642 16106 ft 354 kts 247°
2026-05-09 09:32 47.59092 8.09278 16102 ft 355 kts 247°
2026-05-09 09:32 47.58450 8.07050 16095 ft 355 kts 247°
2026-05-09 09:32 47.57539 8.03892 16103 ft 354 kts 247°
2026-05-09 09:33 47.56570 8.00541 16097 ft 355 kts 247°
2026-05-09 09:33 47.55595 7.97183 16096 ft 355 kts 247°
2026-05-09 09:33 47.54621 7.93828 16096 ft 355 kts 247°
2026-05-09 09:33 47.53646 7.90475 16098 ft 354 kts 246°
2026-05-09 09:34 47.52671 7.87121 16098 ft 355 kts 246°
2026-05-09 09:34 47.51693 7.83763 16095 ft 355 kts 246°
2026-05-09 09:34 47.50701 7.80361 16101 ft 355 kts 246°
2026-05-09 09:36 47.42768 7.57243 10820 ft 334 kts 238°
2026-05-09 09:36 47.41564 7.54307 10592 ft 331 kts 239°
2026-05-09 09:36 47.40399 7.51409 10410 ft 325 kts 239°
2026-05-09 09:37 47.39257 7.48585 10334 ft 315 kts 239°
2026-05-09 09:37 47.38152 7.45871 10220 ft 303 kts 238°
2026-05-09 09:37 47.37081 7.43263 10116 ft 291 kts 239°
2026-05-09 09:37 47.36042 7.40741 9852 ft 286 kts 238°
2026-05-09 09:38 47.35376 7.39084 9744 ft 279 kts 243°
2026-05-09 09:38 47.34877 7.36346 9614 ft 283 kts 268°
2026-05-09 09:38 47.35255 7.33467 9486 ft 285 kts 292°
2026-05-09 09:38 47.36075 7.30806 9359 ft 284 kts 294°
2026-05-09 09:39 47.36889 7.28161 9229 ft 284 kts 293°
2026-05-09 09:39 47.37701 7.25498 9098 ft 283 kts 293°
2026-05-09 09:39 47.38499 7.22856 9005 ft 281 kts 293°
2026-05-09 09:39 47.39289 7.20226 8990 ft 282 kts 293°
2026-05-09 09:40 47.40086 7.17562 8990 ft 285 kts 292°
2026-05-09 09:40 47.40881 7.14892 8978 ft 284 kts 293°
2026-05-09 09:40 47.41710 7.12261 8977 ft 281 kts 295°
2026-05-09 09:40 47.42575 7.09664 8980 ft 282 kts 295°
2026-05-09 09:41 47.43452 7.07059 8979 ft 284 kts 295°
2026-05-09 09:41 47.44321 7.04451 8966 ft 283 kts 295°
2026-05-09 09:41 47.45176 7.01846 8986 ft 283 kts 295°
2026-05-09 09:41 47.46037 6.99239 8912 ft 280 kts 295°
2026-05-09 09:42 47.46876 6.96696 8840 ft 271 kts 295°
2026-05-09 09:42 47.47710 6.94241 8750 ft 262 kts 301°
2026-05-09 09:42 47.48919 6.92301 8672 ft 254 kts 323°
2026-05-09 09:42 47.50518 6.91194 8540 ft 250 kts 342°
2026-05-09 09:43 47.52188 6.90498 8406 ft 251 kts 344°
2026-05-09 09:43 47.53879 6.89888 8292 ft 254 kts 346°
2026-05-09 09:43 47.55589 6.89366 8155 ft 250 kts 349°
2026-05-09 09:43 47.57337 6.88951 8028 ft 251 kts 351°
2026-05-09 09:44 47.58971 6.88663 7931 ft 252 kts 353°
2026-05-09 09:44 47.60752 6.88467 7775 ft 250 kts 356°
2026-05-09 09:44 47.62458 6.88427 7658 ft 250 kts
2026-05-09 09:44 47.64110 6.89302 7548 ft 253 kts 34°
2026-05-09 09:45 47.65300 6.91187 7417 ft 252 kts 62°
2026-05-09 09:45 47.65785 6.93667 7300 ft 251 kts 89°
2026-05-09 09:45 47.65687 6.96234 7166 ft 249 kts 95°
2026-05-09 09:45 47.65565 6.98804 7063 ft 249 kts 95°
2026-05-09 09:46 47.65454 7.01353 6918 ft 248 kts 95°
2026-05-09 09:46 47.65344 7.03899 6688 ft 247 kts 93°
2026-05-09 09:46 47.65243 7.06442 6411 ft 246 kts 94°
2026-05-09 09:46 47.65134 7.08973 6118 ft 245 kts 94°
2026-05-09 09:47 47.65049 7.11490 5841 ft 244 kts 86°
2026-05-09 09:47 47.65562 7.13853 5530 ft 242 kts 55°
2026-05-09 09:47 47.66717 7.15667 5280 ft 241 kts 41°
2026-05-09 09:47 47.67960 7.17307 5026 ft 240 kts 41°
2026-05-09 09:48 47.69212 7.18935 4835 ft 237 kts 41°
2026-05-09 09:48 47.70438 7.20557 4702 ft 239 kts 41°
2026-05-09 09:48 47.71670 7.22217 4584 ft 238 kts 42°
2026-05-09 09:48 47.72882 7.23872 4494 ft 236 kts 42°
2026-05-09 09:49 47.74091 7.25527 4491 ft 236 kts 42°
2026-05-09 09:49 47.75305 7.27194 4494 ft 237 kts 42°
2026-05-09 09:49 47.76521 7.28852 4488 ft 238 kts 42°
2026-05-09 09:49 47.77732 7.30507 4495 ft 237 kts 43°
2026-05-09 09:50 47.78945 7.32176 4492 ft 237 kts 43°
2026-05-09 09:50 47.80153 7.33852 4492 ft 238 kts 45°
2026-05-09 09:50 47.80989 7.35929 4490 ft 237 kts 76°
2026-05-09 09:50 47.80978 7.38359 4495 ft 238 kts 108°
2026-05-09 09:51 47.80116 7.40429 4498 ft 237 kts 140°
2026-05-09 09:51 47.78688 7.41584 4498 ft 237 kts 160°
2026-05-09 09:51 47.77117 7.42371 4456 ft 239 kts 162°
2026-05-09 09:51 47.75551 7.43130 4313 ft 234 kts 162°
2026-05-09 09:52 47.74009 7.43921 4200 ft 237 kts 161°
2026-05-09 09:52 47.72469 7.44753 4064 ft 234 kts 160°
2026-05-09 09:52 47.70940 7.45604 4006 ft 234 kts 160°
2026-05-09 09:52 47.69422 7.46461 4000 ft 231 kts 159°
2026-05-09 09:53 47.67970 7.47284 3998 ft 215 kts 159°
2026-05-09 09:53 47.66604 7.48059 4003 ft 200 kts 159°
2026-05-09 09:53 47.65346 7.48779 4008 ft 198 kts 159°
2026-05-09 09:53 47.64158 7.49621 3995 ft 181 kts 139°
2026-05-09 09:54 47.63506 7.51081 4006 ft 163 kts 115°
2026-05-09 09:54 47.63033 7.52577 3914 ft 154 kts 115°
2026-05-09 09:54 47.62593 7.53985 3679 ft 153 kts 114°
2026-05-09 09:54 47.62310 7.55507 3370 ft 153 kts 97°
2026-05-09 09:55 47.62278 7.57104 2983 ft 156 kts 88°
2026-05-09 09:55 47.62180 7.58664 2743 ft 150 kts 112°
2026-05-09 09:55 47.61549 7.59834 2476 ft 145 kts 149°
2026-05-09 09:55 47.60631 7.60101 2316 ft 132 kts 194°
2026-05-09 09:56 47.59924 7.59427 2258 ft 148 kts 234°
2026-05-09 09:56 47.59587 7.57999 2011 ft 155 kts 264°
2026-05-09 09:56 47.59482 7.56340 1455 ft 162 kts 261°
2026-05-09 09:56 47.59251 7.54727 1056 ft 159 kts 259°
2026-05-09 09:57 47.59022 7.53173 893 ft 142 kts 258°
2026-05-09 09:57 47.58865 7.52174 896 ft 56 kts 256°
2026-05-09 09:57 47.58817 7.51854 895 ft 28 kts 257°
2026-05-09 09:57 47.58854 7.51690 894 ft 17 kts 357°
2026-05-09 09:58 47.58952 7.51686 894 ft 14 kts 29°
2026-05-09 09:58 47.59029 7.51791 894 ft 16 kts 46°
2026-05-09 09:58 47.59114 7.51920 894 ft 19 kts 45°
2026-05-09 09:58 47.59212 7.52066 894 ft 21 kts 45°
2026-05-09 09:59 47.59291 7.52249 894 ft 22 kts 62°
2026-05-09 09:59 47.59361 7.52458 893 ft 24 kts 66°
2026-05-09 09:59 47.59434 7.52694 895 ft 25 kts 65°
2026-05-09 09:59 47.59516 7.52846 894 ft 14 kts
2026-05-09 10:00 47.59570 7.52809 894 ft 5 kts 329°
2026-05-09 10:00 47.59613 7.52793 894 ft 8 kts
2026-05-09 10:00 47.59646 7.52856 894 ft 10 kts 64°
2026-05-09 10:00 47.59676 7.52961 894 ft 12 kts 67°
2026-05-09 10:01 47.59724 7.53027 894 ft 10 kts
2026-05-09 10:01 47.59783 7.53047 894 ft 10 kts 25°
2026-05-09 10:01 47.59815 7.53111 894 ft 5 kts 63°
2026-05-09 10:01 47.59823 7.53139 894 ft 2 kts 68°
2026-05-09 10:02 47.59825 7.53146 894 ft 0 kts 66°
2026-05-09 10:02 47.59827 7.53154 894 ft 2 kts 64°
2026-05-09 10:02 47.59828 7.53155 894 ft 0 kts 64°